N0QWM Weather Reports


Display with metric or nautical units.
time (UTC)temp
F
wind
direction
speed
MPH
gust
MPH
rain 1hr
in
rain 24hr
in
rain mn
in
humidity
%
barometer
mb
20210921090022 73 336 0.0 0.0 0.00 0.00 0.00 94 1021.5
20210921085519 74 354 0.0 0.0 0.00 0.00 0.00 94 1021.5
20210921085018 74 354 0.0 0.0 0.00 0.00 0.00 94 1021.4
20210921084514 74 354 0.0 0.0 0.00 0.00 0.00 93 1021.4
20210921084013 74 354 0.0 0.0 0.00 0.00 0.00 93 1021.3
20210921083512 74 353 0.0 0.0 0.00 0.00 0.00 93 1021.1
20210921083011 74 358 0.0 0.0 0.00 0.00 0.00 93 1021.4
20210921082511 74 3 0.0 0.0 0.00 0.00 0.00 93 1021.1
20210921082009 74 38 0.0 0.0 0.00 0.00 0.00 93 1021.3
20210921081506 74 38 0.0 0.0 0.00 0.00 0.00 93 1021.3
20210921081005 74 39 0.0 0.0 0.00 0.00 0.00 93 1021.0
20210921080505 74 354 0.0 0.0 0.00 0.00 0.00 93 1021.1
20210921080004 74 44 0.0 0.0 0.00 0.00 0.00 93 1021.2
20210921075503 74 34 0.0 0.0 0.00 0.00 0.00 93 1021.3
20210921075002 74 35 0.0 0.0 0.00 0.00 0.00 93 1021.1
20210921074501 74 38 0.0 0.0 0.00 0.00 0.00 94 1021.2
20210921074000 74 27 0.0 0.0 0.00 0.00 0.00 94 1021.2
20210921073458 74 26 0.0 0.0 0.00 0.00 0.00 94 1021.3
20210921072956 74 54 0.0 0.0 0.00 0.00 0.00 94 1021.0
20210921072454 74 54 0.0 0.0 0.00 0.00 0.00 94 1020.9
20210921071954 74 55 0.0 0.0 0.00 0.00 0.00 94 1021.0
20210921071451 74 43 0.0 0.0 0.00 0.00 0.00 94 1021.0
20210921070949 74 43 0.0 0.0 0.00 0.00 0.00 94 1021.1
20210921070449 74 43 0.0 0.0 0.00 0.00 0.00 94 1020.9
20210921065946 74 37 0.0 0.0 0.00 0.00 0.00 94 1020.9
20210921065445 74 4 0.0 0.0 0.00 0.00 0.00 94 1020.7
20210921064444 74 5 0.0 0.0 0.00 0.00 0.00 94 1020.9
20210921063942 74 4 0.0 0.0 0.00 0.00 0.00 94 1020.8
20210921063441 74 4 0.0 0.0 0.00 0.00 0.00 94 1021.0
20210921062938 74 4 0.0 0.0 0.00 0.00 0.00 94 1020.9
20210921062437 74 31 0.0 0.0 0.00 0.00 0.00 94 1020.8
20210921061925 74 345 0.0 0.0 0.00 0.00 0.00 94 1020.9
20210921061424 74 345 0.0 0.0 0.00 0.00 0.00 94 1021.0
20210921060923 74 345 0.0 0.0 0.00 0.00 0.00 93 1021.1
20210921060423 74 345 0.0 0.0 0.00 0.00 0.00 93 1021.2
20210921055921 74 7 0.0 0.0 0.00 0.00 0.00 93 1021.1
20210921055420 74 7 0.0 0.0 0.00 0.00 0.00 93 1021.1
20210921054917 74 32 0.0 0.0 0.00 0.00 0.00 93 1021.4
20210921054416 74 11 0.0 0.0 0.00 0.00 0.00 93 1021.4
20210921053914 74 2 0.0 0.0 0.00 0.00 0.00 93 1021.5
20210921053413 74 3 0.0 0.0 0.00 0.00 0.00 93 1021.3
20210921052907 74 249 0.0 0.0 0.00 0.00 0.00 93 1021.4
20210921052406 74 31 0.0 0.0 0.00 0.00 0.00 93 1021.2
20210921051905 74 352 0.0 0.0 0.00 0.00 0.00 93 1021.4
20210921051404 74 322 0.0 0.0 0.00 0.00 0.00 93 1021.5
20210921050856 74 5 0.0 0.0 0.00 0.00 0.00 93 1021.1
20210921050353 74 18 0.0 0.0 0.00 0.00 0.00 93 1021.5
20210921045853 74 353 0.0 0.0 0.00 0.00 0.00 93 1021.5
20210921045352 74 38 0.0 0.0 0.00 0.00 0.00 93 1021.6
20210921044850 74 68 0.0 0.0 0.00 0.00 0.00 93 1021.5
20210921044350 74 41 0.0 0.0 0.00 0.00 0.00 93 1021.8
20210921043848 74 42 0.0 0.0 0.00 0.00 0.00 93 1021.8
20210921043347 74 42 0.0 0.0 0.00 0.00 0.00 93 1021.5
20210921042845 74 38 0.0 0.0 0.00 0.00 0.00 93 1021.7
20210921042343 74 3 0.0 0.0 0.00 0.00 0.00 93 1021.6
20210921041842 74 42 0.0 0.0 0.00 0.00 0.00 93 1021.6
20210921041341 74 22 0.0 0.0 0.00 0.00 0.00 93 1021.3
20210921040840 74 42 0.0 0.0 0.00 0.00 0.00 93 1021.7
20210921040338 74 34 0.0 0.0 0.00 0.00 0.00 93 1021.3
20210921035838 74 46 0.0 0.0 0.00 0.00 0.00 93 1021.5
20210921035338 74 43 0.0 0.0 0.00 0.00 0.00 93 1021.5
20210921034836 74 44 0.0 0.0 0.00 0.00 0.00 93 1021.4
20210921034336 74 35 0.0 0.0 0.00 0.00 0.00 93 1021.5
20210921033835 74 343 0.0 0.0 0.00 0.00 0.00 93 1021.4
20210921033334 74 63 0.0 0.0 0.00 0.00 0.00 94 1021.2
20210921032833 74 58 0.0 0.0 0.00 0.00 0.00 94 1021.4
20210921032333 74 41 0.0 0.0 0.00 0.00 0.00 94 1021.6
20210921031832 74 41 0.0 0.0 0.00 0.00 0.00 94 1021.6
20210921031331 74 41 0.0 0.0 0.00 0.00 0.00 94 1021.7
20210921030829 74 41 0.0 0.0 0.00 0.00 0.00 94 1021.6
20210921030329 74 41 0.0 0.0 0.00 0.00 0.00 94 1021.5
20210921025830 74 41 0.0 0.0 0.00 0.00 0.00 94 1021.5
20210921025329 74 41 0.0 0.0 0.00 0.00 0.00 94 1021.4
20210921024827 74 41 0.0 0.0 0.00 0.00 0.00 93 1021.6
20210921024325 74 41 0.0 0.0 0.00 0.00 0.00 93 1021.3
20210921023816 74 41 0.0 0.0 0.00 0.00 0.00 93 1021.2
20210921023314 74 41 0.0 0.0 0.00 0.00 0.00 93 1021.2
20210921022812 74 41 0.0 0.0 0.00 0.00 0.00 93 1021.2
20210921022311 74 41 0.0 0.0 0.00 0.00 0.00 93 1020.9
20210921021809 75 41 0.0 0.0 0.00 0.00 0.00 93 1021.0
20210921021302 75 41 0.0 0.0 0.00 0.00 0.00 93 1020.9
20210921020802 75 41 0.0 0.0 0.00 0.00 0.00 92 1021.0
20210921020301 75 41 0.0 0.0 0.00 0.00 0.00 92 1020.7
20210921015758 75 41 0.0 0.0 0.00 0.00 0.00 92 1020.6
20210921015256 75 41 0.0 0.0 0.00 0.00 0.00 92 1020.4
20210921014752 75 41 0.0 0.0 0.00 0.00 0.00 92 1020.5
20210921014252 75 41 0.0 0.0 0.00 0.00 0.00 92 1020.6
20210921013750 75 41 0.0 0.0 0.00 0.00 0.00 92 1020.6
20210921013247 75 41 0.0 0.0 0.00 0.00 0.00 92 1020.7
20210921012746 75 41 0.0 0.0 0.00 0.00 0.00 92 1020.7
20210921012246 75 41 0.0 0.0 0.00 0.00 0.00 91 1020.5
20210921011744 75 41 0.0 0.0 0.00 0.00 0.00 91 1020.4
20210921011243 75 41 0.0 0.0 0.00 0.00 0.00 91 1020.5
20210921010741 75 41 0.0 0.0 0.00 0.00 0.00 91 1020.5
20210921010239 75 41 0.0 0.0 0.00 0.00 0.00 91 1020.3
20210921005738 75 41 0.0 0.0 0.00 0.00 0.00 90 1020.4
20210921005237 76 41 0.0 0.0 0.00 0.00 0.00 90 1020.1
20210921004736 76 41 0.0 0.0 0.00 0.00 0.00 90 1020.3
20210921004235 76 41 0.0 0.0 0.00 0.00 0.00 90 1020.3
20210921003733 76 41 0.0 0.0 0.00 0.00 0.00 89 1020.4
20210921003231 76 41 0.0 0.0 0.00 0.00 0.00 89 1020.1
20210921002731 77 41 0.0 0.0 0.00 0.00 0.00 88 1020.1
20210921002229 77 41 0.0 0.0 0.00 0.00 0.00 88 1020.1
20210921001725 77 41 0.0 0.0 0.00 0.00 0.00 88 1020.1
20210921001223 77 41 0.0 0.0 0.00 0.00 0.00 87 1020.1
20210921000722 77 41 0.0 0.0 0.00 0.00 0.00 87 1020.0
20210921000218 77 41 0.0 0.0 0.00 0.00 0.00 87 1020.4
20210920235717 78 41 0.0 0.0 0.00 0.00 0.00 86 1020.2
20210920235213 78 41 0.0 0.0 0.00 0.00 0.00 85 1019.7
20210920234713 78 41 0.0 0.0 0.00 0.00 0.00 85 1020.1
20210920234212 79 41 0.0 0.0 0.00 0.00 0.00 85 1020.0
20210920233710 79 41 0.0 0.0 0.00 0.00 0.00 84 1020.0
20210920233209 79 41 0.0 0.0 0.00 0.00 0.00 84 1020.0
20210920232707 80 41 0.0 0.0 0.00 0.00 0.00 82 1020.1
20210920232205 80 356 0.0 0.0 0.00 0.00 0.00 81 1020.0
20210920231701 81 354 0.0 0.0 0.00 0.00 0.00 82 1019.9
20210920231201 81 354 0.0 0.0 0.00 0.00 0.00 81 1020.0
20210920230658 81 354 0.0 0.0 0.00 0.00 0.00 81 1019.9
20210920230156 81 356 0.0 0.0 0.00 0.00 0.00 80 1019.8
20210920225656 82 354 0.0 0.0 0.00 0.00 0.00 79 1019.8
20210920225154 82 338 0.0 0.0 0.00 0.00 0.00 77 1019.8
20210920224654 83 324 0.0 0.0 0.00 0.00 0.00 76 1019.9
20210920224153 83 320 0.0 0.0 0.00 0.00 0.00 74 1019.8
20210920223652 83 339 0.0 0.0 0.00 0.00 0.00 75 1019.8
20210920223151 83 11 0.0 0.0 0.00 0.00 0.00 74 1019.7
20210920222650 84 20 0.0 0.0 0.00 0.00 0.00 75 1019.5
20210920222149 84 8 0.0 0.0 0.00 0.00 0.00 73 1019.7
20210920221647 84 150 0.0 0.0 0.00 0.00 0.00 71 1019.3
20210920221146 84 2 0.0 0.0 0.00 0.00 0.00 72 1019.5
20210920220645 84 197 0.0 0.0 0.00 0.00 0.00 69 1019.3
20210920220144 84 181 0.0 0.0 0.00 0.00 0.00 69 1019.3
20210920215638 85 344 0.0 0.0 0.00 0.00 0.00 70 1019.6
20210920215137 85 335 0.0 0.0 0.00 0.00 0.00 69 1019.4
20210920214636 85 345 0.0 0.0 0.00 0.00 0.00 70 1019.2
20210920214135 85 3 0.0 0.0 0.00 0.00 0.00 69 1019.4
20210920213634 85 186 0.0 0.0 0.00 0.00 0.00 68 1019.3
20210920213132 85 329 0.0 0.0 0.00 0.00 0.00 70 1019.1
20210920212631 85 16 0.0 0.0 0.00 0.00 0.00 71 1019.3
20210920212131 85 345 0.0 0.0 0.00 0.00 0.00 72 1019.1
20210920211628 84 1 0.0 0.0 0.00 0.00 0.00 73 1019.2
20210920211128 85 337 0.0 0.0 0.00 0.00 0.00 72 1019.4
20210920210628 85 327 0.0 0.0 0.00 0.00 0.00 70 1019.4
20210920210128 85 277 0.0 0.0 0.00 0.00 0.00 70 1019.4
20210920205626 84 329 0.0 0.0 0.00 0.00 0.00 72 1019.2
20210920205126 85 348 0.0 0.0 0.00 0.00 0.00 71 1019.4
20210920204624 85 196 0.0 0.0 0.00 0.00 0.00 71 1019.3
20210920204122 85 194 0.0 0.0 0.00 0.00 0.00 69 1019.3
20210920203620 86 331 0.0 0.0 0.00 0.00 0.00 69 1019.3
20210920203118 85 23 0.0 0.0 0.00 0.00 0.00 72 1019.6
20210920202618 86 172 0.0 0.0 0.00 0.00 0.00 71 1019.3
20210920202115 86 141 0.0 0.0 0.00 0.00 0.00 72 1019.6
20210920201615 86 0 0.0 0.0 0.00 0.00 0.00 69 1019.6
20210920201115 85 5 0.0 0.0 0.00 0.00 0.00 69 1019.7
20210920200613 86 19 0.0 0.0 0.00 0.00 0.00 69 1019.7
20210920200109 85 27 0.0 0.0 0.00 0.00 0.00 72 1019.8
20210920195609 86 121 0.0 0.0 0.00 0.00 0.00 71 1019.9
20210920195109 85 13 0.0 0.0 0.00 0.00 0.00 73 1019.8
20210920194607 86 162 0.0 0.0 0.00 0.00 0.00 71 1019.8
20210920194105 85 178 0.0 0.0 0.00 0.00 0.00 71 1020.1
20210920193604 84 214 0.0 0.0 0.00 0.00 0.00 71 1020.1
20210920193053 84 290 0.0 0.0 0.00 0.00 0.00 71 1020.3
20210920192551 85 286 0.0 0.0 0.00 0.00 0.00 71 1020.1
20210920192051 87 332 0.0 0.0 0.00 0.00 0.00 68 1020.5
20210920191549 87 342 0.0 0.0 0.00 0.00 0.00 68 1020.4
20210920191048 86 18 0.0 0.0 0.00 0.00 0.00 68 1020.3
20210920190547 86 62 0.0 0.0 0.00 0.00 0.00 67 1020.4
20210920190045 87 205 0.0 0.0 0.00 0.00 0.00 66 1020.4
20210920185543 87 352 0.0 0.0 0.00 0.00 0.00 68 1020.5
20210920185040 86 19 0.0 0.0 0.00 0.00 0.00 69 1020.4
20210920184539 87 157 0.0 0.0 0.00 0.00 0.00 68 1020.7
20210920184037 86 17 0.0 0.0 0.00 0.00 0.00 69 1020.9
20210920183534 86 297 0.0 0.0 0.00 0.00 0.00 68 1020.9
20210920183033 86 343 0.0 0.0 0.00 0.00 0.00 69 1021.0
20210920182532 87 338 0.0 0.0 0.00 0.00 0.00 68 1021.0
20210920182031 86 19 0.0 0.0 0.00 0.00 0.00 71 1020.9
20210920181530 85 1 0.0 0.0 0.00 0.00 0.00 75 1021.2
20210920181029 85 6 0.0 0.0 0.00 0.00 0.00 74 1021.2
20210920180526 85 10 0.0 0.0 0.00 0.00 0.00 74 1021.2
20210920180025 86 18 0.0 0.0 0.00 0.00 0.00 73 1021.6
20210920175524 85 349 0.0 0.0 0.00 0.00 0.00 71 1021.4
20210920175022 85 12 0.0 0.0 0.00 0.00 0.00 71 1021.5
20210920174522 85 263 0.0 0.0 0.00 0.00 0.00 72 1021.7
20210920174022 85 321 0.0 0.0 0.00 0.00 0.00 73 1021.6
20210920173521 85 42 0.0 0.0 0.00 0.00 0.00 75 1021.7
20210920173020 84 13 0.0 0.0 0.00 0.00 0.00 77 1021.7
20210920172519 84 312 0.0 0.0 0.00 0.00 0.00 74 1021.7
20210920172016 82 79 0.0 0.0 0.00 0.00 0.00 78 1021.7
20210920171515 81 158 0.0 0.0 0.00 0.00 0.00 79 1021.9
20210920171016 82 235 0.0 0.0 0.00 0.00 0.00 77 1021.8
20210920170514 82 146 0.0 0.0 0.00 0.00 0.00 78 1021.7
20210920170013 83 208 0.0 0.0 0.00 0.00 0.00 76 1021.9
20210920165512 83 29 0.0 0.0 0.00 0.00 0.00 76 1021.8
20210920165009 83 1 0.0 0.0 0.00 0.00 0.00 78 1021.6
20210920164505 82 314 0.0 0.0 0.00 0.00 0.00 76 1021.8
20210920164004 81 344 0.0 0.0 0.00 0.00 0.00 80 1021.6
20210920163502 78 356 0.0 0.0 0.00 0.00 0.00 86 1021.9
20210920163000 78 344 0.0 0.0 0.00 0.00 0.00 86 1022.0
20210920162458 78 13 0.0 0.0 0.00 0.00 0.00 84 1022.0
20210920161958 78 304 0.0 0.0 0.00 0.00 0.00 84 1022.2
20210920161455 78 7 0.0 0.0 0.00 0.00 0.00 84 1022.1
20210920160954 78 36 0.0 0.0 0.00 0.00 0.00 84 1022.4
20210920160452 78 13 0.0 0.0 0.00 0.00 0.00 85 1022.1
20210920155948 78 209 0.0 0.0 0.00 0.00 0.00 84 1022.2
20210920155445 78 336 0.0 0.0 0.00 0.00 0.00 85 1022.0
20210920154945 78 33 0.0 0.0 0.00 0.00 0.00 85 1022.0
20210920154445 77 357 0.0 0.0 0.00 0.00 0.00 87 1022.2
20210920153941 77 45 0.0 0.0 0.00 0.00 0.00 85 1022.1
20210920153440 77 4 0.0 0.0 0.00 0.00 0.00 87 1022.0
20210920152939 77 32 0.0 0.0 0.00 0.00 0.00 86 1022.1
20210920152435 76 345 0.0 0.0 0.00 0.00 0.00 87 1022.1
20210920151934 76 8 0.0 0.0 0.00 0.00 0.00 88 1022.1
20210920151431 76 87 0.0 0.0 0.00 0.00 0.00 88 1022.1
20210920150931 76 32 0.0 0.0 0.00 0.00 0.00 89 1022.0
20210920150427 75 73 0.0 0.0 0.00 0.00 0.00 88 1022.0
20210920145927 75 42 0.0 0.0 0.00 0.00 0.00 88 1022.2
20210920145427 75 235 0.0 0.0 0.00 0.00 0.00 88 1022.1
20210920144924 75 336 0.0 0.0 0.00 0.00 0.00 88 1022.2
20210920144421 75 329 0.0 0.0 0.00 0.00 0.00 89 1022.3
20210920143919 75 330 0.0 0.0 0.00 0.00 0.00 89 1022.1
20210920143419 75 280 0.0 0.0 0.00 0.00 0.00 90 1022.1
20210920142914 75 345 0.0 0.0 0.00 0.00 0.00 90 1022.2
20210920142414 75 330 0.0 0.0 0.00 0.00 0.00 90 1022.1
20210920141905 75 16 0.0 0.0 0.00 0.00 0.00 91 1021.9
20210920141400 74 356 0.0 0.0 0.00 0.00 0.00 91 1022.0
20210920140859 74 21 0.0 0.0 0.00 0.00 0.00 91 1022.1
20210920140358 74 23 0.0 0.0 0.00 0.00 0.00 90 1021.9
20210920135857 74 341 0.0 0.0 0.00 0.00 0.00 92 1021.9
20210920135356 74 299 0.0 0.0 0.00 0.00 0.00 91 1021.8
20210920134856 74 318 0.0 0.0 0.00 0.00 0.00 92 1021.5
20210920134355 74 331 0.0 0.0 0.00 0.00 0.00 92 1021.4
20210920133853 73 358 0.0 0.0 0.00 0.00 0.00 92 1021.6
20210920133351 73 318 0.0 0.0 0.00 0.00 0.00 93 1021.5
20210920132849 73 31 0.0 0.0 0.00 0.00 0.00 93 1021.6
20210920132349 73 356 0.0 0.0 0.00 0.00 0.00 94 1021.5
20210920131847 73 356 0.0 0.0 0.00 0.00 0.00 94 1021.6
20210920131345 73 290 0.0 0.0 0.00 0.00 0.00 94 1021.6
20210920130843 73 307 0.0 0.0 0.00 0.00 0.00 95 1021.6
20210920130343 73 24 0.0 0.0 0.00 0.00 0.00 95 1021.5
20210920125842 72 338 0.0 0.0 0.00 0.00 0.00 96 1021.6
20210920125341 72 352 0.0 0.0 0.00 0.00 0.00 96 1021.5
20210920124835 72 23 0.0 0.0 0.00 0.00 0.00 96 1021.4
20210920124334 72 24 0.0 0.0 0.00 0.00 0.00 96 1021.6
20210920123833 72 1 0.0 0.0 0.00 0.00 0.00 96 1021.5
20210920123333 72 1 0.0 0.0 0.00 0.00 0.00 96 1021.5
20210920122831 72 352 0.0 0.0 0.00 0.00 0.00 96 1021.6
20210920122330 72 47 0.0 0.0 0.00 0.00 0.00 96 1021.3
20210920121823 72 165 0.0 0.0 0.00 0.00 0.00 96 1021.5
20210920121322 72 16 0.0 0.0 0.00 0.00 0.00 96 1021.5
20210920120819 72 333 0.0 0.0 0.00 0.00 0.00 96 1021.7
20210920120319 72 335 0.0 0.0 0.00 0.00 0.00 96 1021.4
20210920115818 72 348 0.0 0.0 0.00 0.00 0.00 96 1021.3
20210920115318 72 5 0.0 0.0 0.00 0.00 0.00 96 1021.3
20210920114817 72 0 0.0 0.0 0.00 0.00 0.00 96 1021.2
20210920114316 72 339 0.0 0.0 0.00 0.00 0.00 97 1021.3
20210920113813 72 338 0.0 0.0 0.00 0.00 0.00 97 1021.1
20210920113313 72 339 0.0 0.0 0.00 0.00 0.00 97 1021.0
20210920112812 72 343 0.0 0.0 0.00 0.00 0.00 97 1021.0
20210920112312 72 343 0.0 0.0 0.00 0.00 0.00 97 1021.2
20210920111811 72 335 0.0 0.0 0.00 0.00 0.00 97 1021.0
20210920111311 72 16 0.0 0.0 0.00 0.00 0.00 97 1020.9
20210920110809 72 16 0.0 0.0 0.00 0.00 0.00 97 1021.0
20210920110308 72 213 0.0 0.0 0.00 0.00 0.00 97 1021.2
20210920105806 72 345 0.0 0.0 0.00 0.00 0.00 97 1020.9
20210920105305 72 326 0.0 0.0 0.00 0.00 0.00 97 1021.0
20210920104801 72 345 0.0 0.0 0.00 0.00 0.00 97 1020.8
20210920104300 72 30 0.0 0.0 0.00 0.00 0.00 97 1021.0
20210920103800 72 86 0.0 0.0 0.00 0.00 0.00 97 1020.9
20210920103258 72 325 0.0 0.0 0.00 0.00 0.00 97 1021.0
20210920102756 72 325 0.0 0.0 0.00 0.00 0.00 97 1020.9
20210920102255 72 325 0.0 0.0 0.00 0.00 0.00 97 1020.8
20210920101754 72 325 0.0 0.0 0.00 0.00 0.00 97 1020.7
20210920101252 72 325 0.0 0.0 0.00 0.00 0.00 97 1020.5
20210920100751 72 325 0.0 0.0 0.00 0.00 0.00 97 1020.7
20210920100247 72 325 0.0 0.0 0.00 0.00 0.00 97 1020.9
20210920095746 72 325 0.0 0.0 0.00 0.00 0.00 97 1020.8
20210920095245 72 325 0.0 0.0 0.00 0.00 0.00 97 1020.7
20210920094744 72 325 0.0 0.0 0.00 0.00 0.00 97 1020.8
20210920094243 72 325 0.0 0.0 0.00 0.00 0.00 97 1020.7
20210920093741 72 325 0.0 0.0 0.00 0.00 0.00 97 1020.7
20210920093239 72 325 0.0 0.0 0.00 0.00 0.00 97 1020.2
20210920092737 72 325 0.0 0.0 0.00 0.00 0.00 97 1020.5
20210920092232 72 325 0.0 0.0 0.00 0.00 0.00 97 1020.7
20210920091732 72 325 0.0 0.0 0.00 0.00 0.00 97 1020.7
20210920091231 72 325 0.0 0.0 0.00 0.00 0.00 97 1020.5
20210920090729 72 325 0.0 0.0 0.00 0.00 0.00 96 1020.6
20210920090227 71 325 0.0 0.0 0.00 0.00 0.00 96 1020.4